CW5346 Weather Reports


Display with metric or nautical units.
time (UTC)temp
F
wind
direction
speed
MPH
gust
MPH
rain 1hr
in
rain 24hr
in
rain mn
in
humidity
%
barometer
mb
20260505210625 82 195 9.0 23.0 0.00 0.00 0.00 36 1006.5
20260505205604 82 240 4.0 16.0 0.00 0.00 0.00 35 1006.4
20260505204604 82 204 7.0 26.0 0.00 0.00 0.00 36 1006.5
20260505203604 82 222 7.0 22.0 0.00 0.00 0.00 35 1006.8
20260505202604 83 186 6.0 21.0 0.00 0.00 0.00 34 1006.8
20260505200604 83 207 5.0 26.0 0.00 0.00 0.00 35 1006.8
20260505195603 83 220 8.0 21.0 0.00 0.00 0.00 35 1006.7
20260505194604 82 205 9.0 24.0 0.00 0.00 0.00 35 1006.8
20260505193603 82 213 7.0 27.0 0.00 0.00 0.00 37 1006.8
20260505192604 83 221 10.0 25.0 0.00 0.00 0.00 36 1007.0
20260505191604 83 202 7.0 21.0 0.00 0.00 0.00 36 1007.0
20260505190604 84 206 8.0 18.0 0.00 0.00 0.00 36 1007.2
20260505185625 84 203 6.0 20.0 0.00 0.00 0.00 38 1007.4
20260505184603 83 262 5.0 20.0 0.00 0.00 0.00 38 1007.5
20260505183625 83 249 10.0 21.0 0.00 0.00 0.00 37 1008.0
20260505182604 83 228 8.0 16.0 0.00 0.00 0.00 40 1008.0
20260505181603 83 182 8.0 19.0 0.00 0.00 0.00 42 1007.9
20260505180604 82 242 11.0 21.0 0.00 0.00 0.00 41 1008.0
20260505175604 82 203 12.0 22.0 0.00 0.00 0.00 42 1008.1
20260505174604 82 213 5.0 20.0 0.00 0.00 0.00 44 1008.1
20260505173603 82 212 3.0 13.0 0.00 0.00 0.00 45 1008.1
20260505172604 81 212 8.0 16.0 0.00 0.00 0.00 44 1008.2
20260505171646 81 254 6.0 14.0 0.00 0.00 0.00 44 1008.4
20260505170625 80 212 7.0 18.0 0.00 0.00 0.00 47 1008.4
20260505165604 80 210 5.0 15.0 0.00 0.00 0.00 46 1008.6
20260505163604 80 179 3.0 17.0 0.00 0.00 0.00 49 1008.9
20260505162604 79 209 10.0 16.0 0.00 0.00 0.00 48 1009.0
20260505161605 78 255 6.0 15.0 0.00 0.00 0.00 52 1009.2
20260505160603 78 176 2.0 14.0 0.00 0.00 0.00 51 1009.3
20260505152604 76 168 6.0 12.0 0.00 0.00 0.00 54 1009.8
20260505151603 76 178 5.0 12.0 0.00 0.00 0.00 54 1009.9
20260505150604 76 191 1.0 10.0 0.00 0.00 0.00 54 1009.9
20260505140604 71 242 4.0 10.0 0.00 0.00 0.00 61 1010.3
20260505124603 62 225 2.0 7.0 0.00 0.00 0.00 80 1010.1
20260505123604 59 236 0.0 0.0 0.00 0.00 0.00 87 1010.2
20260505122604 57 232 0.0 0.0 0.00 0.00 0.00 93 1010.2
20260505121604 54 232 0.0 0.0 0.00 0.00 0.00 95 1010.4
20260505120604 53 232 0.0 0.0 0.00 0.00 0.00 96 1010.7
20260505115604 51 232 0.0 0.0 0.00 0.00 0.00 95 1010.7
20260505114625 50 232 0.0 0.0 0.00 0.00 0.00 95 1010.7
20260505113604 50 232 0.0 0.0 0.00 0.00 0.00 95 1010.5
20260505112645 49 232 0.0 0.0 0.00 0.00 0.00 95 1010.2
20260505111604 49 232 0.0 0.0 0.00 0.00 0.00 95 1010.2
20260505110603 48 231 0.0 0.0 0.00 0.00 0.00 95 1010.4
20260505101603 45 231 0.0 0.0 0.00 0.00 0.00 94 1010.5
20260505100604 45 231 0.0 0.0 0.00 0.00 0.00 94 1010.3
20260505095603 45 231 0.0 0.0 0.00 0.00 0.00 94 1010.2
20260505094604 45 231 0.0 0.0 0.00 0.00 0.00 93 1010.1
20260505093604 45 191 0.0 0.0 0.00 0.00 0.00 93 1010.2
20260505092604 45 204 0.0 0.0 0.00 0.00 0.00 93 1010.0
20260505091603 46 204 0.0 0.0 0.00 0.00 0.00 93 1009.9
20260505090604 46 204 0.0 0.0 0.00 0.00 0.00 93 1009.7
20260505085625 46 204 0.0 0.0 0.00 0.00 0.00 93 1009.6
20260505084603 46 204 0.0 0.0 0.00 0.00 0.00 92 1009.7
20260505083604 46 204 0.0 0.0 0.00 0.00 0.00 92 1009.7
20260505082603 46 204 0.0 0.0 0.00 0.00 0.00 92 1009.6
20260505081604 46 204 0.0 0.0 0.00 0.00 0.00 92 1009.8
20260505080604 46 203 0.0 0.0 0.00 0.00 0.00 92 1009.7
20260505075603 46 203 0.0 0.0 0.00 0.00 0.00 92 1009.8
20260505074604 46 204 0.0 0.0 0.00 0.00 0.00 91 1009.7
20260505073604 46 204 0.0 0.0 0.00 0.00 0.00 91 1009.7
20260505072603 46 204 0.0 0.0 0.00 0.00 0.00 91 1009.7
20260505071603 47 204 0.0 0.0 0.00 0.00 0.00 91 1009.5
20260505070604 47 204 0.0 0.0 0.00 0.00 0.00 90 1009.6
20260505065625 47 204 0.0 0.0 0.00 0.00 0.00 90 1009.8
20260505064604 47 204 0.0 0.0 0.00 0.00 0.00 90 1009.7
20260505063603 47 204 0.0 0.0 0.00 0.00 0.00 89 1009.8
20260505062604 47 203 0.0 0.0 0.00 0.00 0.00 89 1009.8
20260505061604 47 204 0.0 0.0 0.00 0.00 0.00 88 1009.9
20260505060624 48 204 0.0 0.0 0.00 0.00 0.00 88 1009.8
20260505055625 48 204 0.0 0.0 0.00 0.00 0.00 88 1010.0
20260505054604 48 204 0.0 0.0 0.00 0.00 0.00 88 1010.0
20260505053604 48 204 0.0 0.0 0.00 0.00 0.00 87 1010.1
20260505052603 48 204 0.0 0.0 0.00 0.00 0.00 87 1010.1
20260505051604 49 204 0.0 0.0 0.00 0.00 0.00 86 1010.1
20260505050604 49 204 0.0 0.0 0.00 0.00 0.00 85 1010.2
20260505041603 50 204 0.0 0.0 0.00 0.00 0.00 83 1010.4
20260505040603 50 204 0.0 0.0 0.00 0.00 0.00 82 1010.3
20260505035604 51 204 0.0 0.0 0.00 0.00 0.00 82 1010.3
20260505034604 51 203 0.0 0.0 0.00 0.00 0.00 81 1010.4
20260505033603 51 204 0.0 0.0 0.00 0.00 0.00 80 1010.4
20260505032604 52 204 0.0 0.0 0.00 0.00 0.00 79 1010.5
20260505031603 52 204 0.0 0.0 0.00 0.00 0.00 79 1010.6
20260505030604 52 204 0.0 0.0 0.00 0.00 0.00 78 1010.6
20260505025624 53 204 0.0 0.0 0.00 0.00 0.00 77 1010.6
20260505024603 53 204 0.0 0.0 0.00 0.00 0.00 75 1010.6
20260505023625 54 204 0.0 0.0 0.00 0.00 0.00 76 1010.5
20260505022603 54 204 0.0 0.0 0.00 0.00 0.00 74 1010.6
20260505021604 55 204 0.0 0.0 0.00 0.00 0.00 72 1010.5
20260505020603 55 204 0.0 0.0 0.00 0.00 0.00 71 1010.6
20260505015604 56 204 0.0 0.0 0.00 0.00 0.00 70 1010.5
20260505014624 57 204 0.0 0.0 0.00 0.00 0.00 68 1010.4
20260505013603 58 204 0.0 0.0 0.00 0.00 0.00 67 1010.4
20260505011603 59 204 0.0 0.0 0.00 0.00 0.00 63 1010.2
20260505005604 61 204 0.0 0.0 0.00 0.00 0.00 58 1009.9
20260505004604 63 204 0.0 0.0 0.00 0.00 0.00 57 1009.6
20260505003625 64 204 0.0 0.0 0.00 0.00 0.00 53 1009.6
20260505002603 65 204 0.0 4.0 0.00 0.00 0.00 51 1009.4
20260505001604 67 202 1.0 4.0 0.00 0.00 0.00 48 1009.3
20260505000603 68 202 1.0 6.0 0.00 0.00 0.00 45 1009.1
20260504235604 68 205 2.0 8.0 0.00 0.00 0.00 44 1008.9
20260504234603 69 221 3.0 10.0 0.00 0.00 0.00 43 1008.8
20260504233603 69 216 3.0 11.0 0.00 0.00 0.00 43 1008.6
20260504232603 70 223 4.0 10.0 0.00 0.00 0.00 41 1008.5
20260504231603 70 233 1.0 9.0 0.00 0.00 0.00 41 1008.4
20260504230603 70 211 7.0 17.0 0.00 0.00 0.00 40 1008.3
20260504225604 71 206 4.0 13.0 0.00 0.00 0.00 40 1008.3
20260504224603 71 220 5.0 14.0 0.00 0.00 0.00 40 1008.2
20260504223604 71 235 2.0 13.0 0.00 0.00 0.00 39 1008.2
20260504222604 71 244 6.0 14.0 0.00 0.00 0.00 39 1008.4
20260504221604 72 237 3.0 11.0 0.00 0.00 0.00 40 1008.3
20260504220603 72 208 3.0 13.0 0.00 0.00 0.00 40 1008.3
20260504215603 72 229 2.0 16.0 0.00 0.00 0.00 38 1008.5
20260504214603 72 219 9.0 17.0 0.00 0.00 0.00 38 1008.5
20260504213603 72 257 4.0 11.0 0.00 0.00 0.00 35 1008.6
20260504212604 73 219 5.0 16.0 0.00 0.00 0.00 37 1008.6
20260504211603 73 177 2.0 18.0 0.00 0.00 0.00 36 1008.6